Wind_Speed
75 76 76 76 76 77 77 77 77 75 72 71 72 71 72 72 72 71 70 69 67 66 65 64 64 64 64 64 64 64 64 64 63 63 63 64 64 65
77 77 77 76 77 77 76 76 77 76 73 70 70 70 71 72 72 71 70 69 68 67 66 66 65 66 66 65 65 65 64 64 65 64 65 65 65 66
77 77 76 76 76 75 75 74 74 73 71 67 68 69 70 70 70 69 68 67 66 66 65 65 65 66 67 67 66 66 65 65 65 66 66 66 66 67
77 77 75 75 74 74 73 72 72 71 71 67 66 67 68 68 67 66 66 66 65 65 66 67 66 66 66 65 65 65 66 65 65 65 66 66 66 67
75 75 73 72 71 70 70 70 69 68 68 66 64 65 65 66 66 66 66 66 66 67 67 67 67 66 65 64 65 65 65 65 65 65 66 66 66 67
72 71 69 69 68 67 67 66 66 65 65 64 62 63 63 64 65 65 66 67 66 66 66 65 65 65 64 65 65 65 65 65 65 65 66 66 67 67
67 65 65 65 64 64 64 64 64 64 63 62 61 62 62 63 63 64 65 65 65 65 64 64 64 63 64 64 64 64 65 65 65 66 66 66 67 67
61 61 60 59 59 60 60 60 60 60 60 61 60 60 61 62 63 63 63 63 62 62 63 63 63 63 62 63 63 63 63 64 65 65 65 66 67 68
56 55 55 55 56 56 56 56 57 57 58 59 58 58 59 60 61 61 61 61 60 61 61 60 60 60 61 61 62 62 62 62 63 64 65 66 67 67
51 51 51 51 52 53 53 54 54 55 56 57 56 56 57 58 59 59 60 60 59 59 59 58 59 59 59 60 60 61 61 62 63 64 65 65 66 66
47 47 48 48 49 50 50 50 51 52 53 54 55 55 56 57 58 59 59 59 58 57 58 57 57 58 58 58 59 60 61 61 62 63 64 64 65 65
44 44 46 47 47 48 49 49 49 50 51 52 53 54 55 56 56 56 57 57 56 55 55 55 55 56 55 55 56 58 59 60 61 61 62 63 64 65
42 43 43 45 45 46 47 47 48 49 50 51 52 52 52 53 53 54 53 53 53 52 52 53 53 54 54 53 53 55 56 58 59 60 61 62 63 64
41 41 42 43 44 45 45 46 47 48 49 50 50 49 49 49 49 49 50 50 49 49 50 51 52 52 53 52 51 52 54 56 57 58 59 60 61 62
41 41 42 42 43 44 44 44 45 46 47 46 46 45 45 46 46 46 46 47 47 47 48 49 49 50 50 50 50 50 52 53 55 56 57 57 58 59
41 41 41 42 42 42 42 42 42 43 43 43 42 42 42 42 43 43 44 44 45 45 46 46 47 48 48 47 48 48 50 50 51 53 54 54 54 55
40 39 39 39 39 39 39 39 40 40 39 39 38 37 37 38 39 39 40 41 41 42 43 44 45 45 45 45 45 46 47 48 49 50 50 49 49 49
39 38 38 38 37 36 36 37 37 36 36 35 35 34 34 35 36 37 37 38 39 39 40 42 43 43 43 42 43 44 44 45 45 45 46 45 43 44
37 37 37 36 35 34 33 33 33 32 33 32 32 32 32 32 33 34 34 35 36 36 38 39 40 41 40 39 39 41 41 41 42 42 43 43 41 40
36 35 34 33 32 31 31 30 30 30 30 30 29 29 29 30 30 31 32 32 33 34 35 36 36 37 37 36 36 36 39 40 40 40 40 40 39 39
33 32 31 31 30 29 29 29 29 29 28 28 28 27 27 27 28 28 29 30 30 31 31 32 33 34 34 34 33 33 36 38 39 39 39 39 38 37
31 30 30 29 29 28 28 28 28 27 27 27 27 27 27 27 27 28 28 28 29 29 30 31 32 32 33 33 32 32 33 36 37 38 38 37 36 34
30 29 29 29 28 28 28 27 27 27 27 26 26 26 27 27 28 28 28 28 28 29 29 30 30 31 32 32 31 31 32 33 34 34 34 35 35 33
Wind_Direction
283 282 281 280 279 279 278 277 277 276 275 274 274 273 273 272 273 273 273 273 272 271 271 270 270 269 268 268 267 267 267 266 265 264 263 263 262 260
282 281 280 280 279 278 277 277 276 276 275 274 273 272 272 272 273 273 273 272 271 271 270 269 269 269 268 268 267 266 266 265 264 264 264 263 262 261
282 281 280 279 278 277 277 277 276 276 276 274 273 272 272 272 272 272 271 271 270 270 270 269 269 268 268 268 266 266 265 265 264 264 264 263 263 262
282 281 280 279 278 277 277 277 276 275 275 274 273 272 272 271 271 271 270 269 269 269 269 269 269 269 268 267 266 265 265 265 265 264 264 263 263 262
282 281 280 279 278 277 277 276 276 275 274 274 272 271 271 271 270 270 269 269 269 268 269 269 269 268 267 266 266 265 265 265 265 265 264 264 263 262
283 282 280 279 278 277 277 276 275 274 274 273 273 272 271 271 271 270 269 269 268 268 269 269 269 268 268 267 266 266 265 265 265 265 265 264 263 262
283 281 280 279 278 277 276 276 275 274 274 273 273 272 272 272 271 270 269 269 269 269 269 269 269 269 268 267 267 266 265 265 265 265 265 264 264 263
283 281 280 279 279 278 278 277 276 276 275 275 274 273 273 272 271 270 270 269 270 269 269 269 269 268 268 267 267 266 266 266 266 265 265 265 264 264
285 282 281 280 280 280 279 278 277 276 276 276 275 274 274 272 271 271 270 270 270 269 269 269 269 268 268 267 267 267 266 266 266 266 266 266 265 265
287 284 282 281 281 280 280 279 279 278 278 277 276 275 273 272 271 271 271 271 270 270 270 270 269 268 267 266 267 267 266 267 267 267 267 267 267 266
289 287 285 283 283 283 282 282 280 279 278 277 277 276 275 274 273 272 271 271 270 270 269 269 268 267 267 267 267 267 267 267 267 267 267 267 268 268
292 290 288 287 286 286 286 285 283 281 280 279 279 278 277 276 275 273 272 271 270 269 269 269 268 267 267 267 267 267 268 268 268 268 268 269 269 269
295 293 291 290 289 288 288 287 285 283 282 282 281 280 278 277 276 275 273 271 270 269 268 268 267 267 267 267 267 268 268 268 269 269 270 270 270 270
298 296 294 292 291 291 290 288 286 285 285 284 282 280 278 276 275 274 273 271 270 269 268 268 268 268 268 268 268 268 268 269 270 270 270 271 271 271
300 299 297 295 294 293 292 290 288 288 287 286 284 280 277 276 275 274 273 272 271 269 268 268 268 268 268 268 268 269 270 270 271 271 271 271 271 272
302 301 299 298 297 295 294 293 291 290 290 288 286 281 278 276 275 274 273 272 271 270 269 269 269 269 269 269 270 270 271 272 271 272 272 273 274 274
303 302 301 300 299 298 297 296 294 293 292 290 287 283 280 278 276 275 274 272 271 270 269 270 270 270 270 271 272 272 273 274 273 273 274 275 275 274
306 305 305 304 303 301 300 298 297 296 294 292 288 284 281 279 277 276 275 273 272 270 270 270 271 271 271 272 274 275 276 275 275 276 277 277 275 273
308 308 308 307 306 304 304 303 302 300 298 295 292 288 284 281 279 277 276 275 274 272 271 272 272 272 272 273 274 276 277 277 278 278 279 279 276 273
310 310 310 310 309 308 307 307 306 304 302 299 296 292 288 285 283 280 278 276 275 274 274 273 274 274 274 274 275 276 278 278 279 280 280 280 277 274
311 311 311 312 311 311 310 309 308 306 304 302 299 295 292 290 287 283 281 279 277 276 276 275 276 276 276 277 277 276 278 280 282 282 281 279 277 276
313 312 312 313 313 313 312 311 310 309 307 304 301 298 294 292 289 287 284 281 280 279 278 277 277 278 279 279 279 279 280 281 282 284 284 283 281 278
315 314 314 313 313 313 313 312 312 311 310 308 304 301 298 293 289 287 285 283 281 280 279 279 280 281 281 281 281 282 282 282 282 284 285 285 284 281
Height
5604 5598 5593 5589 5584 5579 5575 5572 5569 5571 5576 5577 5573 5571 5566 5564 5563 5562 5563 5562 5562 5563 5563 5564 5564 5565 5566 5566 5567 5568 5569 5570 5571 5573 5575 5577 5579 5581
5581 5576 5571 5566 5561 5557 5553 5550 5546 5545 5550 5557 5552 5549 5545 5544 5543 5542 5542 5541 5542 5542 5543 5544 5544 5545 5546 5547 5548 5548 5549 5551 5552 5554 5556 5558 5560 5562
5557 5552 5549 5543 5538 5535 5531 5528 5526 5523 5525 5533 5529 5527 5525 5524 5522 5521 5521 5521 5522 5522 5523 5523 5524 5525 5526 5526 5527 5528 5529 5531 5532 5534 5536 5538 5540 5542
5534 5529 5525 5519 5516 5513 5509 5507 5505 5503 5503 5508 5509 5505 5504 5503 5501 5501 5501 5501 5502 5502 5502 5503 5503 5504 5505 5506 5507 5508 5509 5511 5512 5514 5516 5518 5520 5521
5510 5506 5502 5497 5494 5491 5488 5486 5484 5482 5481 5484 5487 5484 5483 5482 5481 5481 5480 5481 5481 5481 5481 5482 5482 5483 5484 5485 5486 5487 5489 5490 5492 5494 5495 5497 5499 5501
5487 5483 5479 5475 5472 5469 5467 5466 5464 5462 5462 5463 5465 5464 5463 5462 5460 5461 5459 5459 5460 5460 5460 5461 5462 5463 5464 5465 5466 5467 5468 5469 5471 5473 5474 5476 5478 5480
5465 5461 5457 5454 5451 5449 5447 5446 5444 5443 5442 5442 5444 5443 5443 5441 5441 5439 5439 5438 5439 5440 5440 5441 5442 5443 5443 5444 5445 5446 5447 5448 5450 5452 5453 5455 5457 5459
5445 5441 5437 5434 5432 5430 5428 5426 5425 5424 5423 5422 5423 5423 5423 5421 5419 5419 5418 5419 5421 5421 5419 5421 5421 5423 5423 5423 5424 5425 5426 5428 5429 5430 5432 5434 5435 5437
5425 5422 5420 5417 5414 5412 5410 5408 5407 5405 5404 5403 5403 5404 5402 5401 5399 5399 5399 5399 5401 5400 5400 5402 5402 5403 5403 5403 5404 5405 5406 5407 5408 5409 5410 5412 5413 5415
5408 5405 5403 5401 5398 5395 5394 5392 5390 5388 5386 5384 5385 5384 5383 5381 5380 5380 5379 5380 5381 5381 5381 5383 5383 5383 5383 5384 5384 5385 5385 5386 5387 5388 5389 5390 5391 5392
5394 5390 5387 5385 5383 5379 5377 5376 5373 5371 5368 5366 5365 5365 5363 5362 5361 5360 5360 5360 5362 5363 5362 5363 5364 5363 5364 5365 5365 5365 5365 5366 5366 5367 5368 5368 5369 5369
5381 5377 5373 5370 5367 5364 5361 5359 5357 5354 5351 5349 5348 5346 5344 5343 5341 5341 5341 5341 5343 5344 5344 5344 5344 5343 5346 5348 5347 5346 5346 5346 5346 5347 5347 5347 5346 5347
5367 5364 5360 5356 5352 5349 5346 5343 5340 5337 5335 5333 5330 5328 5326 5324 5323 5322 5322 5323 5324 5326 5326 5325 5326 5326 5328 5330 5330 5328 5327 5327 5326 5327 5326 5325 5325 5325
5354 5351 5347 5343 5339 5335 5331 5328 5324 5321 5318 5315 5313 5311 5309 5307 5306 5305 5304 5305 5306 5307 5307 5307 5308 5309 5310 5311 5313 5311 5310 5308 5308 5307 5306 5305 5305 5304
5342 5338 5334 5329 5325 5321 5317 5313 5309 5305 5302 5298 5295 5293 5292 5291 5290 5289 5289 5289 5289 5290 5290 5291 5292 5292 5292 5294 5295 5294 5293 5291 5289 5288 5287 5286 5286 5284
5330 5326 5321 5316 5311 5307 5303 5299 5295 5291 5287 5283 5280 5277 5276 5275 5275 5274 5274 5274 5274 5275 5275 5275 5275 5276 5276 5277 5277 5277 5275 5274 5272 5270 5269 5268 5267 5264
5319 5315 5310 5305 5300 5295 5290 5286 5282 5278 5274 5270 5266 5264 5263 5262 5261 5260 5260 5260 5260 5260 5260 5260 5259 5260 5260 5261 5261 5260 5258 5257 5255 5253 5251 5251 5249 5246
5308 5303 5298 5293 5288 5283 5279 5274 5270 5266 5262 5258 5255 5253 5251 5250 5249 5248 5247 5246 5246 5246 5246 5246 5245 5245 5246 5246 5246 5244 5242 5240 5238 5236 5234 5233 5234 5231
5297 5292 5287 5282 5277 5272 5268 5264 5259 5255 5251 5248 5245 5242 5240 5239 5237 5236 5235 5234 5234 5234 5233 5232 5232 5231 5232 5233 5232 5229 5227 5225 5223 5221 5219 5217 5217 5216
5288 5282 5277 5272 5267 5263 5259 5255 5250 5246 5242 5239 5235 5233 5230 5229 5227 5226 5224 5223 5222 5222 5221 5220 5219 5219 5218 5219 5218 5217 5213 5210 5208 5207 5205 5203 5202 5200
5279 5274 5269 5264 5259 5255 5250 5246 5242 5238 5234 5230 5227 5224 5222 5220 5218 5216 5214 5213 5212 5211 5210 5209 5208 5207 5206 5205 5205 5204 5201 5197 5194 5193 5191 5189 5188 5186
5271 5266 5261 5256 5252 5247 5243 5238 5234 5230 5226 5222 5219 5216 5213 5211 5209 5207 5205 5204 5202 5201 5200 5199 5197 5196 5194 5193 5192 5191 5189 5185 5182 5179 5177 5175 5172 5172
5263 5258 5253 5249 5244 5240 5235 5231 5227 5222 5218 5214 5211 5208 5205 5203 5200 5198 5196 5195 5193 5192 5190 5189 5187 5186 5184 5182 5181 5179 5177 5174 5171 5169 5167 5162 5160 5158